EW8889 Weather Reports


Display with metric or nautical units.
time (UTC)temp
F
wind
direction
speed
MPH
gust
MPH
rain 1hr
in
rain 24hr
in
rain mn
in
humidity
%
barometer
mb
20260506190908 53 41 0.0 4.0 0.00 0.00 0.00 67 1010.7
20260506180910 54 32 2.0 6.0 0.00 0.00 0.00 65 1010.0
20260506170907 54 36 2.0 8.0 0.00 0.00 0.00 66 1009.6
20260506163913 53 37 5.0 12.0 0.00 0.00 0.00 68 1009.5
20260506150908 55 51 2.0 9.0 0.00 0.00 0.00 61 1009.3
20260506140907 56 12 2.0 11.0 0.00 0.00 0.00 57 1009.1
20260506130909 58 19 4.0 13.0 0.00 0.00 0.00 54 1008.6
20260506120909 58 15 4.0 12.0 0.00 0.00 0.00 58 1008.4
20260506110907 59 44 5.0 14.0 0.00 0.00 0.00 49 1008.1
20260506100907 57 78 4.0 12.0 0.00 0.00 0.00 62 1008.0
20260506090906 56 76 3.0 10.0 0.00 0.00 0.00 68 1007.9
20260506080858 55 53 1.0 9.0 0.00 0.00 0.00 77 1007.5
20260506060857 50 31 1.0 5.0 0.00 0.00 0.00 87 1007.4
20260506050856 49 358 0.0 7.0 0.00 0.00 0.00 91 1007.5
20260506040857 49 40 1.0 6.0 0.00 0.00 0.00 92 1007.5
20260506030857 49 7 1.0 6.0 0.00 0.01 0.00 91 1007.7
20260506020854 50 69 1.0 9.0 0.00 0.03 0.00 86 1007.9
20260506010855 51 34 2.0 10.0 0.00 0.04 0.00 82 1008.0
20260506000855 51 36 1.0 8.0 0.00 0.04 0.00 81 1008.5
20260505230853 51 19 1.0 8.0 0.00 0.04 0.00 78 1008.6
20260505220851 52 61 2.0 9.0 0.00 0.05 0.00 76 1009.0
20260505213853 53 0 2.0 8.0 0.00 0.06 0.05 76 1009.1
20260505200849 53 74 4.0 10.0 0.00 0.06 0.05 75 1009.1